カタログに戻る

SAUDISAT 5B

運用中アマチュア無線SSO
NORAD 43833·PAYLOAD·🇸🇦 Saudi Arabia

打ち上げ Dec 7, 2018 から Jiuquan Satellite Launch Center

Loading…

次のパス (今後24時間)

TLE

最新Source: Space-Track

元期: Sep 14, 2026, 22:13 UTC

1 43833U 18102C   26257.92606884  .00004668  00000-0  16795-3 0  9993
2 43833  97.3082 321.0124 0010432 168.5225 191.6256 15.29044470429500

AllMySatでSAUDISAT 5Bをリアルタイム追跡

Download on the App Store